Regional Weather Roundup
Issued by NWS

Home | Current Version | Previous Version | Graphics & Text | Print | Product List | Glossary On
Versions: 1 2 3 4 5 6 7 8 9 10 11 12 13 14 15 16 17 18 19 20 21 22 23 24 25 26 27 28 29 30 31 32 33 34 35 36 37 38 39 40 41 42 43 44 45 46 47 48 49 50
445
ASUS45 KSLC 130510
RWRUT

UTAH REGIONAL WEATHER ROUNDUP
NATIONAL WEATHER SERVICE SALT LAKE CITY UT
1000 PM MST TUE DEC 12 2017

UTZ001>011-023>025-130600-

NORTHERN UTAH

CITY           SKY/WX    TMP DP  RH WIND       PRES   REMARKS
BRIGHAM CITY   CLOUDY    22  20  91 CALM      30.45F VSB 1/4
HILL AFB       FOG       23  22  95 CALM      30.41F VSB 1/4
LOGAN          CLOUDY    19  15  84 CALM      30.42F
OGDEN          FOG       24  23  96 CALM      30.42F VSB 1/2
SALT LAKE CITY FOG       25  24  96 NE5       30.44S VSB 1/4 WCI  19
TOOELE VALLEY  FOG       23  23 100 SW3       30.45S VSB 1/4
WENDOVER       MOCLDY    14  11  87 SW3       30.45
HEBER CITY       N/A     18  12  79 CALM      30.36S
WEST JORDAN    CLOUDY    22  22 100 NW6       30.43R VSB 1/4 WCI  14

$$

UTZ011>015-024>027-130600-

CENTRAL/NORTHEAST UTAH

CITY           SKY/WX    TMP DP  RH WIND       PRES   REMARKS
PROVO AIRPORT  PTCLDY    19  17  92 E5        30.41S HAZE    WCI  12
MOAB/CANYONLAN MOCLDY    27   2  34 SW3       30.31F
DELTA          MOCLDY    19  10  68 CALM      30.39S
PRICE          PTCLDY    28   3  34 N5        30.31F WCI  23
RICHFIELD      CLEAR     18   3  53 CALM      30.38
ROOSEVELT      CLOUDY    21  10  63 W6        30.35F WCI  14
VERNAL         CLOUDY    20   8  60 CALM      30.35S

$$

UTZ013>016-019>022-027-130600-

SOUTHERN UTAH

CITY           SKY/WX    TMP DP  RH WIND       PRES   REMARKS
BRYCE CANYON   PTCLDY    20   2  45 W9        30.39S WCI   9
CEDAR CITY     PTCLDY    28   7  41 S5        30.34F WCI  23
MILFORD        MOCLDY    17   9  70 CALM      30.36F
ST GEORGE      CLEAR     40   3  21 CALM      30.27S
HANKSVILLE     MOCLDY    25  -2  30 CALM      30.35S
KANAB          CLEAR     41   1  19 NW15      30.32
BLANDING         N/A     31   4  32 NE6       30.37S WCI  25

$$

REGIONAL REPORTS     COLORADO/ARIZONA

CITY           SKY/WX    TMP DP  RH WIND       PRES   REMARKS
CRAIG, CO      CLOUDY    15  11  83 CALM      30.32S
GRAND JUNCTION CLOUDY    25   6  44 E5        30.32S WCI  19
RIFLE, CO      CLEAR     24  10  55 E6        30.34F WCI  17
MONTROSE, CO   CLOUDY    24   9  52 SE9       30.35S WCI  14
CORTEZ, CO     CLOUDY    19   2  47 E5        30.31F WCI  12
COLORADO CITY    N/A     37   5  25 CALM      30.31S
PAGE, AZ       MOCLDY    36  17  46 CALM      30.30F
GRAND CANYON   MOCLDY    25   6  44 CALM      30.32S
KINGMAN, AZ    PTCLDY    39   2  21 E8        30.20F WCI  33
FLAGSTAFF, AZ  PTCLDY    21  -2  36 NE3       30.32F

$$

REGIONAL REPORTS    NEVADA/IDAHO/WYOMING

CITY           SKY/WX    TMP DP  RH WIND       PRES   REMARKS
LAS VEGAS, NV  CLEAR     50   1  13 CALM      30.18S
ELY, NY        PTCLDY    22   3  44 S15       30.39S WCI   9
ELKO, NV       MOCLDY    20  16  84 NE5       30.41S WCI  13
POCATELLO, ID  FOG       20  19  96 W6        30.42F VSB 3/4 WCI  12
BURLEY, ID     FOG       22  18  85 S5        30.43F VSB 1/2 WCI  16
FORT BRIDGER,    N/A     40   1  19 W16       30.35F WCI  31
EVANSTON, WY   CLOUDY    33   9  36 SW10      30.35F WCI  25
ROCK SPRINGS,  CLOUDY    35   4  27 SW14      30.27F WCI  26

$$




USA.gov is the U.S. government's official web portal to all federal, state and local government web resources and services.